Date String (YYYY-MM-DD hh:mm:ss) UTC,Instrument flags,Ambient pressure (hPa),Sample flow (lpm),Bypass flow (lpm),Sample temperature (°C),Ambient temperature (°C),ASC tube jacket temperature (°C),LED temperature (°C),Box temperature (°C),Sample RH (%),Span deviation,Mass concentration (μg/m³),Mass concentration (μg/m³),Mass concentration (μg/m³)
DateTimeUTC,F1_M11,P_M11,Q1_M11,Q2_M11,T1_M11,T2_M11,T3_M11,T4_M11,T5_M11,U1_M11,ZSPAN_M11,X0_M11,X2_M11,X1_M11
2022-12-11 00:00:00,,0823.8,5.00,0.00,27.6,26.1,00.0,36.5,29.4,07.4,0000.0,0019.77,0006.93,0005.78
2022-12-11 00:01:00,,0823.7,5.00,0.00,27.6,26.0,00.0,36.5,29.4,07.3,0000.0,0018.38,0006.94,0005.81
2022-12-11 00:02:00,,0823.8,5.00,0.00,27.6,26.0,00.0,36.5,29.4,07.3,0000.0,0018.85,0006.99,0005.83
2022-12-11 00:03:00,,0823.8,5.02,0.00,27.6,26.0,00.0,36.5,29.4,07.2,0000.0,0018.34,0006.99,0005.84
2022-12-11 00:04:00,,0823.8,5.00,0.00,27.6,26.0,00.0,36.5,29.3,07.2,0000.0,0017.97,0007.01,0005.85
2022-12-11 00:05:00,,0823.8,5.00,0.00,27.6,25.9,00.0,36.5,29.3,07.1,0000.0,0018.12,0007.00,0005.83
2022-12-11 00:06:00,,0823.8,4.99,0.00,27.6,25.9,00.0,36.5,29.3,07.0,0000.0,0018.75,0006.92,0005.79
2022-12-11 00:07:00,,0823.8,5.00,0.00,27.5,25.9,00.0,36.5,29.2,07.1,0000.0,0020.17,0006.89,0005.77
2022-12-11 00:08:00,,0823.8,5.00,0.00,27.5,25.9,00.0,36.5,29.3,07.2,0000.0,0020.85,0006.89,0005.75
2022-12-11 00:09:00,,0823.8,5.00,0.00,27.5,25.9,00.0,36.5,29.3,07.1,0000.0,0020.67,0006.80,0005.72
2022-12-11 00:10:00,,0823.8,5.00,0.00,27.5,25.9,00.0,36.4,29.2,07.0,0000.0,0020.66,0006.76,0005.69
2022-12-11 00:11:00,,0823.8,5.00,0.00,27.5,25.9,00.0,36.4,29.3,06.7,0000.0,0020.88,0006.62,0005.56
2022-12-11 00:12:00,,0823.8,5.00,0.00,27.5,25.9,00.0,36.4,29.2,06.8,0000.0,0021.11,0006.45,0005.44
2022-12-11 00:13:00,,0823.8,5.00,0.00,27.5,25.9,00.0,36.4,29.2,06.9,0000.0,0020.69,0006.39,0005.36
2022-12-11 00:14:00,,0823.9,5.00,0.00,27.4,25.9,00.0,36.4,29.2,07.0,0000.0,0021.12,0006.35,0005.31
2022-12-11 00:15:00,,0823.9,5.00,0.00,27.4,25.9,00.0,36.4,29.2,07.1,0000.0,0021.17,0006.35,0005.28
2022-12-11 00:16:00,,0823.9,5.00,0.00,27.4,25.9,00.0,36.4,29.3,07.2,0000.0,0021.72,0006.32,0005.27
2022-12-11 00:17:00,,0823.9,5.00,0.00,27.4,25.9,00.0,36.4,29.3,07.6,0000.0,0022.87,0006.44,0005.33
2022-12-11 00:18:00,,0823.9,5.00,0.00,27.4,25.9,00.0,36.4,29.3,07.7,0000.0,0022.41,0006.52,0005.38
2022-12-11 00:19:00,,0823.8,5.00,0.00,27.4,25.9,00.0,36.3,29.3,07.6,0000.0,0020.75,0006.54,0005.40
2022-12-11 00:20:00,,0823.8,5.00,0.00,27.4,25.9,00.0,36.3,29.3,07.7,0000.0,0020.04,0006.63,0005.43
2022-12-11 00:21:00,,0823.9,5.00,0.00,27.4,25.9,00.0,36.3,29.3,07.8,0000.0,0020.70,0006.73,0005.48
2022-12-11 00:22:00,,0823.9,5.01,0.00,27.4,25.9,00.0,36.3,29.3,07.9,0000.0,0021.17,0006.92,0005.59
2022-12-11 00:23:00,,0824.0,4.99,0.00,27.4,25.9,00.0,36.3,29.3,07.9,0000.0,0021.90,0007.16,0005.73
2022-12-11 00:24:00,,0824.0,4.99,0.00,27.4,25.9,00.0,36.3,29.3,07.8,0000.0,0021.98,0007.30,0005.83
2022-12-11 00:25:00,,0824.0,5.00,0.00,27.4,25.9,00.0,36.3,29.3,07.9,0000.0,0021.29,0007.38,0005.89
2022-12-11 00:26:00,,0823.9,5.01,0.00,27.4,25.9,00.0,36.3,29.3,07.9,0000.0,0021.94,0007.44,0005.94
2022-12-11 00:27:00,,0823.8,5.01,0.00,27.4,25.8,00.0,36.3,29.3,07.9,0000.0,0022.50,0007.51,0005.98
2022-12-11 00:28:00,,0823.8,5.01,0.00,27.4,25.9,00.0,36.3,29.3,07.8,0000.0,0021.51,0007.55,0006.01
2022-12-11 00:29:00,,0823.9,5.00,0.00,27.4,25.8,00.0,36.3,29.2,07.9,0000.0,0020.57,0007.57,0006.01
2022-12-11 00:30:00,,0824.0,4.99,0.00,27.4,25.8,00.0,36.3,29.2,07.9,0000.0,0020.82,0007.54,0006.01
2022-12-11 00:31:00,,0824.0,4.99,0.00,27.4,25.8,00.0,36.2,29.3,07.9,0000.0,0020.94,0007.61,0006.04
2022-12-11 00:32:00,,0824.0,5.01,0.00,27.4,25.8,00.0,36.2,29.3,07.8,0000.0,0020.76,0007.65,0006.05
2022-12-11 00:33:00,,0823.8,5.01,0.00,27.4,25.8,00.0,36.2,29.2,07.8,0000.0,0020.74,0007.62,0006.06
2022-12-11 00:34:00,,0823.8,5.00,0.00,27.4,25.8,00.0,36.2,29.2,07.8,0000.0,0021.23,0007.64,0006.07
2022-12-11 00:35:00,,0823.9,4.99,0.00,27.4,25.8,00.0,36.2,29.2,07.8,0000.0,0021.59,0007.66,0006.08
2022-12-11 00:36:00,,0823.8,4.99,0.00,27.4,25.8,00.0,36.2,29.2,07.9,0000.0,0022.92,0007.72,0006.09
2022-12-11 00:37:00,,0823.8,5.00,0.00,27.4,25.8,00.0,36.2,29.2,08.0,0000.0,0023.29,0007.79,0006.14
2022-12-11 00:38:00,,0823.9,5.00,0.00,27.4,25.8,00.0,36.2,29.2,08.0,0000.0,0023.03,0007.89,0006.20
2022-12-11 00:39:00,,0823.9,5.01,0.00,27.4,25.8,00.0,36.2,29.2,08.0,0000.0,0023.25,0007.94,0006.28
2022-12-11 00:40:00,,0823.8,5.01,0.00,27.3,25.8,00.0,36.2,29.2,08.1,0000.0,0024.39,0008.07,0006.40
2022-12-11 00:41:00,,0823.8,5.00,0.00,27.3,25.8,00.0,36.2,29.2,08.1,0000.0,0025.99,0008.27,0006.54
2022-12-11 00:42:00,,0823.8,5.00,0.00,27.3,25.8,00.0,36.2,29.2,08.2,0000.0,0026.37,0008.42,0006.66
2022-12-11 00:43:00,,0823.8,5.00,0.00,27.3,25.8,00.0,36.2,29.2,08.2,0000.0,0026.25,0008.48,0006.76
2022-12-11 00:44:00,,0823.7,4.99,0.00,27.3,25.8,00.0,36.2,29.2,08.2,0000.0,0026.98,0008.64,0006.85
2022-12-11 00:45:00,,0823.8,4.99,0.00,27.3,25.7,00.0,36.2,29.2,08.2,0001.0,0026.85,0008.80,0006.94
2022-12-11 00:46:00,,0823.8,5.00,0.00,27.3,25.7,00.0,36.2,29.2,08.2,0005.3,0027.88,0008.94,0007.05
2022-12-11 00:47:00,,0823.8,5.00,0.00,27.3,25.7,00.0,36.2,29.2,08.2,0005.3,0029.32,0009.11,0007.18
2022-12-11 00:48:00,,0823.8,5.00,0.00,27.3,25.7,00.0,36.2,29.1,08.2,0005.5,0029.62,0009.23,0007.28
2022-12-11 00:49:00,,0823.7,5.00,0.00,27.3,25.7,00.0,36.1,29.1,08.2,0005.2,0031.00,0009.35,0007.36
2022-12-11 00:50:00,,0823.7,5.00,0.00,27.3,25.7,00.0,36.1,29.1,08.2,0004.5,0033.45,0009.49,0007.41
2022-12-11 00:51:00,,0823.7,5.00,0.00,27.3,25.7,00.0,36.1,29.1,08.2,0004.4,0033.90,0009.55,0007.43
2022-12-11 00:52:00,,0823.7,5.01,0.00,27.3,25.7,00.0,36.1,29.1,08.2,0004.6,0033.03,0009.54,0007.39
2022-12-11 00:53:00,,0823.8,5.00,0.00,27.2,25.7,00.0,36.1,29.1,08.2,0002.8,0033.51,0009.51,0007.35
2022-12-11 00:54:00,,0823.8,5.00,0.00,27.2,25.7,00.0,36.1,29.1,08.2,0000.0,0034.46,0009.50,0007.33
2022-12-11 00:55:00,,0823.8,4.99,0.00,27.2,25.7,00.0,36.1,29.1,08.3,0000.0,0034.35,0009.42,0007.30
2022-12-11 00:56:00,,0823.8,5.00,0.00,27.2,25.7,00.0,36.1,29.1,08.3,0000.0,0034.74,0009.40,0007.26
2022-12-11 00:57:00,,0823.8,5.00,0.00,27.2,25.7,00.0,36.1,29.1,08.3,0000.0,0034.48,0009.34,0007.22
2022-12-11 00:58:00,,0823.8,5.00,0.00,27.2,25.6,00.0,36.1,29.1,08.3,0000.0,0033.30,0009.21,0007.16
2022-12-11 00:59:00,,0823.8,5.00,0.00,27.2,25.6,00.0,36.1,29.1,08.3,0000.0,0031.92,0009.16,0007.10
